Flag for India Weather past 2 weeks in Varanasi, Uttar Pradesh, India

Now
81 °F

Haze.


Feels Like: 89 °F
Forecast: 79 / 91 °F
Wind: No wind

Location: Varanasi / Babatpur

Current Time: Sep 19, 2014 at 5:35:20 AM

Latest Report: Sep 19, 2014 at 5:00 AM


Visibility: 2 mi

Pressure: 29.65 "Hg

Humidity: 100%

Dew point: 81 °F

Location of VaranasiLocation

Historic Weather in Varanasi — Graph

°F

Varanasi temperature yesterday

Maximum temperature yesterday: 97 °F (at 2:00 PM)
Minimum temperature yesterday: 84 °F (at 4:00 AM)
Average temperature yesterday: 89 °F

Past Weeks' High & Low Weather Summary

 TemperatureHumidityPressure
High97 °F (Sep 18, 2:00 PM)100% (Sep 5, 5:00 AM)29.77 "Hg (Sep 5, 5:00 AM)
Low77 °F (Sep 14, 12:00 AM)59% (Sep 9, 3:00 PM)29.50 "Hg (Sep 5, 5:00 PM)
Average85 °F82%29.62 "Hg
* Reported Sep 4 5:00 AM — Sep 19 4:00 AM, Varanasi, Weather by CustomWeather, © 2014

Note: Actual official high and low records may vary slightly from our data, if they occured in-between our weather recording intervals... More about our weather records

Advertising

Varanasi weather history for previous 24 hours

 ConditionsComfort  
Time TempWeatherWind HumidityBarometerVisibility
4:00 AM
Sep 19
82 °FHaze.No wind94%29.68 "Hg2 mi
12:00 AM84 °FPassing clouds.No wind89%29.71 "Hg2 mi
11:00 PM
Sep 18
84 °FPassing clouds.No wind89%29.71 "Hg2 mi
10:00 PM86 °FPassing clouds.No wind84%29.71 "Hg2 mi
9:00 PM86 °FPassing clouds.1 mph84%29.68 "Hg2 mi
8:00 PM86 °FPassing clouds.No wind84%29.65 "Hg2 mi
7:00 PM88 °FPassing clouds.2 mph79%29.65 "Hg2 mi
6:00 PM90 °FScattered clouds.No wind75%29.62 "Hg3 mi
5:00 PM91 °FScattered clouds.2 mph67%29.59 "Hg3 mi
4:00 PM93 °FScattered clouds.5 mph59%29.59 "Hg3 mi
3:00 PM97 °FScattered clouds.6 mph60%29.59 "Hg3 mi
2:00 PM97 °FScattered clouds.5 mph60%29.59 "Hg3 mi
1:00 PM95 °FScattered clouds.5 mph60%29.62 "Hg3 mi
12:00 PM93 °FScattered clouds.5 mph63%29.65 "Hg3 mi
11:00 AM90 °FScattered clouds.3 mph75%29.62 "Hg3 mi
10:00 AM90 °FScattered clouds.2 mph75%29.62 "Hg2 mi
8:00 AM84 °FFog.No wind89%29.65 "Hg1 mi
7:00 AM84 °FFog.No wind89%29.65 "Hg1 mi
5:00 AM84 °FPassing clouds.No wind89%29.59 "Hg1 mi
Weather by CustomWeather, © 2014

See weather overviewHow to use our weather pages